Stations météo

réclame
Mon MeteoGroup
South Uist Range, Grande-Bretagne (3023): Température de l'air & dewpoint: 11.09.2019 20:00:00 - 17.09.2019 20:00:00 (BST)South Uist Range, Grande-Bretagne (3023): Température de l'air -20cm & Température de l'air -100cm: 11.09.2019 20:00:00 - 17.09.2019 20:00:00 (BST)South Uist Range, Grande-Bretagne (3023): Vitesse du vent & gusts: 11.09.2019 20:00:00 - 17.09.2019 20:00:00 (BST)South Uist Range, Grande-Bretagne (3023): Direction du vent: 11.09.2019 20:00:00 - 17.09.2019 20:00:00 (BST)South Uist Range, Grande-Bretagne (3023): reduced air pressure: 11.09.2019 20:00:00 - 17.09.2019 20:00:00 (BST)South Uist Range, Grande-Bretagne (3023): visibility: 11.09.2019 20:00:00 - 17.09.2019 20:00:00 (BST)South Uist Range, Grande-Bretagne (3023): Quantités de précipitations: 11.09.2019 20:00:00 - 17.09.2019 20:00:00 (BST)
Date & Time tt [°C] td [°C] tt -20cm [°C] tt -100cm [°C] ff [km/h] ff [knt] fx [km/h] fx [knt] dd ppp [hPa] vv [km] rr [mm]
17.09.2019 20:00:00 10,9 8,7 - - 9 5 - - SE 1027,2 35 -
17.09.2019 19:00:00 11,3 8,0 - - 5 3 - - S 1027,2 35 0,0
17.09.2019 18:00:00 11,9 7,4 - - 9 5 - - SW 1027,4 35 0,0
17.09.2019 17:00:00 12,1 6,5 - - 11 6 - - W 1027,9 40 0,0
17.09.2019 16:00:00 12,7 5,9 - - 11 6 - - W 1027,9 50 0,0
17.09.2019 15:00:00 12,9 4,0 - - 11 6 - - W 1027,9 45 0,0
17.09.2019 14:00:00 12,3 5,0 - - 13 7 - - W 1028,0 45 0,0
17.09.2019 13:00:00 12,2 4,3 - - 11 6 - - WNW 1027,9 50 0,0
17.09.2019 12:00:00 12,3 5,3 - - 11 6 - - WNW 1027,6 40 0,0
17.09.2019 11:00:00 12,0 4,6 - - 15 8 - - WNW 1027,2 40 0,0
17.09.2019 10:00:00 11,8 4,9 13,0 13,0 13 7 - - NW 1026,9 35 0,0
17.09.2019 09:00:00 11,2 4,5 - - 13 7 - - NW 1026,2 35 0,0
17.09.2019 08:00:00 10,0 4,4 - - 15 8 - - NW 1025,9 40 0,0
17.09.2019 07:00:00 9,7 3,4 - - 18 10 - - NW 1025,2 40 0,0
17.09.2019 06:00:00 9,8 4,3 - - 16 9 - - NW 1025,0 35 0,0
17.09.2019 05:00:00 10,2 3,7 - - 22 12 - - NW 1024,7 40 0,0
17.09.2019 04:00:00 10,8 5,1 - - 26 14 - - NW 1024,7 30 0,0
17.09.2019 03:00:00 11,3 5,9 - - 29 16 - - WNW 1024,1 30 0,0
17.09.2019 02:00:00 10,9 6,1 - - 24 13 - - NW 1023,8 30 0,0
17.09.2019 01:00:00 11,2 5,8 - - 26 14 - - WNW 1023,7 30 0,0
17.09.2019 00:00:00 11,1 6,1 - - 28 15 - - WNW 1023,6 29 0,0
16.09.2019 23:00:00 11,6 7,3 - - 31 17 - - WNW 1023,4 26 0,0
16.09.2019 22:00:00 12,1 7,2 - - 26 14 - - WNW 1023,1 24 0,0
16.09.2019 21:00:00 11,8 7,4 - - 24 13 - - WNW 1023,0 21 0,0
16.09.2019 20:00:00 11,8 6,9 - - 29 16 - - WNW 1022,7 24 0,0
16.09.2019 19:00:00 12,4 8,3 - - 31 17 - - WNW 1022,2 29 0,0
16.09.2019 18:00:00 12,5 9,1 - - 29 16 - - W 1022,3 25 0,0
16.09.2019 17:00:00 12,1 7,7 - - 29 16 52 28 WNW 1022,3 40 0,2
16.09.2019 16:00:00 13,6 8,7 - - 37 20 48 26 W 1022,0 30 0,0
16.09.2019 15:00:00 13,6 9,1 - - 37 20 46 25 W 1022,0 35 0,0
16.09.2019 14:00:00 11,8 10,0 - - 37 20 50 27 W 1022,0 8 0,0
16.09.2019 13:00:00 13,5 8,2 - - 37 20 48 26 W 1021,8 35 0,0
16.09.2019 12:00:00 12,9 7,9 - - 35 19 46 25 W 1021,4 35 0,0
16.09.2019 11:00:00 13,0 7,5 - - 37 20 46 25 W 1021,3 50 0,0
16.09.2019 10:00:00 12,3 7,7 13,0 13,2 31 17 - - W 1021,1 35 0,0
16.09.2019 09:00:00 10,9 7,6 - - 34 18 54 29 W 1020,9 4,9 0,0
16.09.2019 08:00:00 11,9 8,5 - - 29 16 - - W 1020,3 35 0,0
16.09.2019 07:00:00 10,2 8,5 - - 26 14 - - W 1020,3 40 0,0
16.09.2019 06:00:00 11,4 7,3 - - 34 18 50 27 W 1020,2 45 0,0
16.09.2019 05:00:00 11,7 7,0 - - 29 16 - - WSW 1020,5 40 0,0
16.09.2019 04:00:00 11,3 8,4 - - 29 16 - - W 1020,9 35 0,0
16.09.2019 03:00:00 11,8 6,9 - - 28 15 - - WSW 1021,1 45 0,0
16.09.2019 02:00:00 11,5 6,9 - - 28 15 - - W 1021,0 40 0,0
16.09.2019 01:00:00 11,5 7,1 - - 28 15 - - W 1021,3 35 0,0
16.09.2019 00:00:00 11,5 7,1 - - 26 14 - - W 1021,4 35 0,0
15.09.2019 23:00:00 11,3 6,9 - - 24 13 - - W 1021,6 29 0,0
15.09.2019 22:00:00 11,6 7,3 - - 24 13 - - W 1021,5 30 0,0
15.09.2019 21:00:00 11,9 7,5 - - 26 14 - - W 1021,5 29 0,0
15.09.2019 20:00:00 11,9 7,6 - - 24 13 - - W 1021,4 24 0,0
15.09.2019 19:00:00 11,8 6,6 - - 21 11 - - W 1021,2 29 0,0
15.09.2019 18:00:00 12,6 7,9 - - 26 14 - - W 1021,3 26 0,0
15.09.2019 17:00:00 12,7 7,2 - - 29 16 - - W 1021,4 27 0,0
15.09.2019 16:00:00 13,5 6,4 - - 28 15 - - W 1022,0 35 0,0
15.09.2019 15:00:00 13,3 5,9 - - 31 17 - - W 1022,0 35 0,0
15.09.2019 14:00:00 13,6 6,1 - - 31 17 - - W 1021,5 30 0,0
15.09.2019 13:00:00 12,9 4,4 - - 34 18 52 28 W 1021,9 30 0,0
15.09.2019 12:00:00 13,3 7,1 - - 34 18 46 25 W 1021,4 23 0,0
15.09.2019 11:00:00 12,3 6,7 - - 31 17 - - W 1021,3 19 0,0
15.09.2019 10:00:00 11,6 7,1 13,2 13,2 29 16 48 26 WNW 1020,7 15 0,0
15.09.2019 09:00:00 11,5 7,8 - - 37 20 50 27 W 1020,3 13 0,0
15.09.2019 08:00:00 11,7 6,5 - - 35 19 54 29 WNW 1020,0 17 0,0
15.09.2019 07:00:00 11,8 5,9 - - 41 22 54 29 W 1019,7 17 0,0
15.09.2019 06:00:00 11,8 6,2 - - 44 24 61 33 W 1019,0 15 0,0
15.09.2019 05:00:00 11,6 5,6 - - 44 24 57 31 W 1019,1 18 0,0
15.09.2019 04:00:00 11,5 4,9 - - 44 24 61 33 WNW 1019,0 17 0,0
15.09.2019 03:00:00 11,9 6,8 - - 44 24 57 31 W 1018,7 13 0,0
15.09.2019 02:00:00 12,0 6,3 - - 44 24 67 36 W 1018,2 15 0,0
15.09.2019 01:00:00 12,5 7,1 - - 46 25 70 38 W 1017,6 16 0,0
15.09.2019 00:00:00 12,4 7,6 - - 50 27 65 35 W 1017,2 15 0,0
14.09.2019 23:00:00 12,7 7,1 - - 44 24 72 39 W 1017,0 16 0,0
14.09.2019 22:00:00 12,8 8,9 - - 54 29 70 38 W 1016,4 12 0,0
14.09.2019 21:00:00 13,1 9,4 - - 48 26 61 33 W 1015,9 12 0,0
14.09.2019 20:00:00 13,1 10,2 - - 44 24 59 32 W 1015,4 11 0,0
14.09.2019 19:00:00 13,1 10,3 - - 42 23 63 34 W 1014,8 11 0,2
14.09.2019 18:00:00 13,3 11,4 - - 46 25 68 37 W 1014,8 9 0,4
14.09.2019 17:00:00 14,4 13,3 - - 52 28 67 36 WSW 1014,6 15 0,0
14.09.2019 16:00:00 14,6 14,2 - - 54 29 78 42 WSW 1014,2 9 0,8
14.09.2019 15:00:00 14,5 14,2 - - 59 32 83 45 SW 1014,3 2,2 1,0
14.09.2019 14:00:00 14,3 14,0 - - 61 33 83 45 SW 1014,8 3,5 1,8
14.09.2019 13:00:00 14,2 13,9 - - 63 34 87 47 SW 1015,5 3,3 0,2
14.09.2019 12:00:00 13,9 13,6 - - 61 33 83 45 SSW 1016,2 2,3 0,4
14.09.2019 11:00:00 13,9 13,5 - - 63 34 81 44 SSW 1017,1 3,2 0,4
14.09.2019 10:00:00 13,9 13,1 13,5 13,2 61 33 83 45 SSW 1017,7 5 0,0
14.09.2019 09:00:00 13,5 13,0 - - 63 34 85 46 SSW 1018,5 6 0,2
14.09.2019 08:00:00 13,3 12,4 - - 67 36 91 49 SSW 1019,3 7 0,6
14.09.2019 07:00:00 12,7 12,3 - - 59 32 80 43 SSW 1020,4 2,2 0,6
14.09.2019 06:00:00 11,9 10,8 - - 52 28 80 43 S 1021,2 3,1 0,8
14.09.2019 05:00:00 11,9 10,7 - - 61 33 78 42 SSW 1023,2 3,9 0,4
14.09.2019 04:00:00 13,3 11,2 - - 48 26 65 35 SSW 1024,9 20 0,0
14.09.2019 03:00:00 12,8 11,0 - - 42 23 55 30 SSW 1026,6 24 0,0
14.09.2019 02:00:00 13,2 11,2 - - 41 22 57 31 SSW 1027,9 26 0,0
14.09.2019 01:00:00 13,3 11,5 - - 41 22 55 30 SSW 1029,0 23 0,0
14.09.2019 00:00:00 13,3 11,3 - - 34 18 - - SSW 1030,0 23 0,0
13.09.2019 23:00:00 13,3 11,1 - - 34 18 - - SW 1030,6 22 0,0
13.09.2019 22:00:00 13,3 11,2 - - 35 19 - - SW 1031,0 18 0,0
13.09.2019 21:00:00 13,2 10,9 - - 35 19 48 26 SW 1031,3 21 0,0
13.09.2019 20:00:00 13,3 11,5 - - 35 19 48 26 SW 1031,3 16 0,0
13.09.2019 19:00:00 13,5 11,2 - - 39 21 50 27 SW 1031,5 19 0,0
13.09.2019 18:00:00 13,8 11,1 - - 37 20 50 27 SW 1031,6 18 0,0
13.09.2019 17:00:00 14,1 11,6 - - 37 20 52 28 SW 1031,5 18 0,0
13.09.2019 16:00:00 14,7 11,6 - - 39 21 50 27 SW 1031,9 20 0,0
13.09.2019 15:00:00 14,2 10,7 - - 39 21 50 27 WSW 1031,7 20 0,0
13.09.2019 14:00:00 14,5 10,4 - - 39 21 55 30 WSW 1032,1 23 0,0
13.09.2019 13:00:00 14,6 10,8 - - 39 21 52 28 WSW 1032,0 21 0,0
13.09.2019 12:00:00 14,3 9,4 - - 39 21 52 28 WSW 1031,4 23 0,0
13.09.2019 11:00:00 13,7 9,0 - - 41 22 52 28 WSW 1031,2 22 0,0
13.09.2019 10:00:00 13,6 9,4 13,5 13,2 42 23 54 29 WSW 1030,7 21 0,0
13.09.2019 09:00:00 13,1 9,4 - - 37 20 54 29 WSW 1030,1 20 0,0
13.09.2019 08:00:00 12,7 8,9 - - 39 21 52 28 WSW 1029,5 18 0,0
13.09.2019 07:00:00 12,5 8,5 - - 39 21 52 28 WSW 1029,1 20 0,0
13.09.2019 06:00:00 12,6 8,3 - - 39 21 52 28 W 1028,8 23 0,0
13.09.2019 05:00:00 12,6 8,1 - - 41 22 54 29 W 1028,1 22 0,0
13.09.2019 04:00:00 12,6 8,7 - - 34 18 52 28 W 1027,7 23 0,0
13.09.2019 03:00:00 12,5 7,7 - - 37 20 52 28 W 1027,4 28 0,0
13.09.2019 02:00:00 12,6 8,3 - - 34 18 54 29 W 1027,1 27 0,0
13.09.2019 01:00:00 12,2 8,2 - - 39 21 52 28 W 1026,5 30 0,0
13.09.2019 00:00:00 12,5 8,0 - - 41 22 54 29 W 1025,9 30 0,0
12.09.2019 23:00:00 12,4 8,5 - - 35 19 57 31 W 1025,2 30 0,0
12.09.2019 22:00:00 12,7 8,3 - - 39 21 54 29 W 1024,6 30 0,0
12.09.2019 21:00:00 12,8 9,3 - - 41 22 54 29 W 1024,0 25 0,0
12.09.2019 20:00:00 13,0 9,2 - - 37 20 50 27 W 1023,4 25 0,0
12.09.2019 19:00:00 12,9 8,7 - - 35 19 48 26 W 1022,9 28 0,0
12.09.2019 18:00:00 13,3 8,5 - - 34 18 46 25 W 1022,2 30 0,0
12.09.2019 17:00:00 13,9 8,4 - - 35 19 - - W 1021,7 35 0,0
12.09.2019 16:00:00 14,3 9,2 - - 34 18 46 25 W 1021,0 35 0,0
12.09.2019 15:00:00 14,4 8,8 - - 34 18 46 25 W 1020,3 30 0,0
12.09.2019 14:00:00 14,6 10,6 - - 34 18 - - W 1019,2 30 0,0
12.09.2019 13:00:00 14,2 9,8 - - 31 17 48 26 W 1018,3 30 0,0
12.09.2019 12:00:00 12,4 8,9 - - 34 18 52 28 W 1017,7 40 0,0
12.09.2019 11:00:00 13,5 10,0 - - 31 17 - - W 1016,7 35 0,0
12.09.2019 10:00:00 12,9 9,4 13,7 13,4 29 16 - - W 1015,8 30 0,2
12.09.2019 09:00:00 12,8 10,5 - - 34 18 48 26 WSW 1015,0 30 0,8
12.09.2019 08:00:00 12,8 9,5 - - 35 19 - - WSW 1014,4 40 0,0
12.09.2019 07:00:00 12,6 9,8 - - 35 19 46 25 WSW 1013,9 35 0,0
12.09.2019 06:00:00 12,6 10,3 - - 34 18 46 25 SW 1013,8 29 0,0
12.09.2019 05:00:00 12,6 10,8 - - 29 16 - - SW 1013,5 28 0,0
12.09.2019 04:00:00 11,5 10,5 - - 34 18 57 31 WSW 1014,0 23 0,0
12.09.2019 03:00:00 12,1 9,3 - - 31 17 52 28 WSW 1013,9 45 0,0
12.09.2019 02:00:00 12,3 10,3 - - 35 19 48 26 WSW 1013,8 40 0,0
12.09.2019 01:00:00 12,7 11,2 - - 31 17 46 25 WSW 1013,7 25 0,0
12.09.2019 00:00:00 12,4 11,1 - - 35 19 48 26 WSW 1013,4 30 0,2
11.09.2019 23:00:00 12,6 11,0 - - 39 21 48 26 WSW 1013,2 28 0,0
11.09.2019 22:00:00 12,8 11,3 - - 29 16 57 31 WSW 1013,3 22 0,0
11.09.2019 21:00:00 13,0 11,0 - - 37 20 48 26 WSW 1012,8 19 0,0
11.09.2019 20:00:00 12,8 11,0 - - 35 19 48 26 WSW 1012,2 24 0,0

tt = Température de l'air
td = dewpoint
tt -20cm = Température de l'air -20cm
tt -100cm = Température de l'air -100cm
ff = Vitesse du vent
fx = gusts
dd = Direction du vent
ppp = reduced air pressure
vv = visibility
rr = Quantités de précipitations

stations d'obs. à proximité